Time,TemperatureF,DewpointF,PressureIn,WindDirection,WindDirectionDegrees,WindSpeedMPH,WindSpeedGustMPH,Humidity,HourlyPrecipIn,Conditions,Clouds,dailyrainin,SoftwareType,DateUTC
2013-07-10 00:00:00,80.1,73.7,30.00,SSW,202,0.0,4.0,81,0.00,,,-99.99,WeatherLink 5.6,2013-07-10 05:00:00,
2013-07-10 00:30:00,80.5,74.1,30.00,SSW,202,0.0,1.0,81,0.00,,,-99.99,WeatherLink 5.6,2013-07-10 05:30:00,
2013-07-10 01:00:00,80.1,74.8,29.98,SSW,202,0.0,5.0,84,0.00,,,-99.99,WeatherLink 5.6,2013-07-10 06:00:00,
2013-07-10 01:30:00,80.3,75.4,29.98,SW,225,1.0,7.0,85,0.00,,,-99.99,WeatherLink 5.6,2013-07-10 06:30:00,
2013-07-10 02:00:00,80.3,76.1,29.98,SSW,202,0.0,4.0,87,0.00,,,-99.99,WeatherLink 5.6,2013-07-10 07:00:00,
2013-07-10 02:30:00,80.1,76.2,29.98,WSW,247,0.0,3.0,88,0.00,,,-99.99,WeatherLink 5.6,2013-07-10 07:30:00,
2013-07-10 03:00:00,79.8,76.3,29.98,WSW,247,0.0,1.0,89,0.00,,,-99.99,WeatherLink 5.6,2013-07-10 08:00:00,
2013-07-10 03:30:00,79.6,76.1,29.98,WSW,247,0.0,1.0,89,0.00,,,-99.99,WeatherLink 5.6,2013-07-10 08:30:00,
2013-07-10 04:00:00,78.1,75.3,29.99,North,-999,0.0,0.0,91,0.00,,,-99.99,WeatherLink 5.6,2013-07-10 09:00:00,
2013-07-10 04:30:00,77.0,74.5,29.99,North,-999,0.0,0.0,92,0.00,,,-99.99,WeatherLink 5.6,2013-07-10 09:30:00,
2013-07-10 05:00:00,76.5,74.6,29.99,WSW,247,0.0,3.0,94,0.00,,,-99.99,WeatherLink 5.6,2013-07-10 10:00:00,
2013-07-10 05:30:00,76.1,74.6,30.00,WSW,247,0.0,3.0,95,0.00,,,-99.99,WeatherLink 5.6,2013-07-10 10:30:00,
2013-07-10 06:00:00,76.1,74.6,30.00,WSW,247,0.0,1.0,95,0.00,,,-99.99,WeatherLink 5.6,2013-07-10 11:00:00,
2013-07-10 06:30:00,76.0,74.8,30.00,North,-999,0.0,0.0,96,0.00,,,-99.99,WeatherLink 5.6,2013-07-10 11:30:00,
2013-07-10 07:00:00,77.2,76.0,30.00,WSW,247,0.0,1.0,96,0.00,,,-99.99,WeatherLink 5.6,2013-07-10 12:00:00,
2013-07-10 07:30:00,78.8,76.9,30.00,WSW,247,0.0,5.0,94,0.00,,,-99.99,WeatherLink 5.6,2013-07-10 12:30:00,
2013-07-10 08:00:00,80.3,76.8,30.01,West,270,1.0,7.0,89,0.00,,,-99.99,WeatherLink 5.6,2013-07-10 13:00:00,
2013-07-10 08:30:00,82.0,76.7,30.02,West,270,2.0,9.0,84,0.00,,,-99.99,WeatherLink 5.6,2013-07-10 13:30:00,
2013-07-10 09:00:00,84.0,75.2,30.01,WNW,292,2.0,8.0,75,0.00,,,-99.99,WeatherLink 5.6,2013-07-10 14:00:00,
2013-07-10 09:30:00,85.3,75.7,30.01,West,270,2.0,7.0,73,0.00,,,-99.99,WeatherLink 5.6,2013-07-10 14:30:00,
2013-07-10 10:00:00,87.4,75.5,30.01,WNW,292,1.0,5.0,68,0.00,,,-99.99,WeatherLink 5.6,2013-07-10 15:00:00,
2013-07-10 10:30:00,88.0,75.2,30.01,West,270,2.0,10.0,66,0.00,,,-99.99,WeatherLink 5.6,2013-07-10 15:30:00,
2013-07-10 11:00:00,89.0,75.2,30.00,West,270,2.0,7.0,64,0.00,,,-99.99,WeatherLink 5.6,2013-07-10 16:00:00,
2013-07-10 11:30:00,88.2,76.3,30.00,SSW,202,2.0,9.0,68,0.00,,,-99.99,WeatherLink 5.6,2013-07-10 16:30:00,
2013-07-10 12:00:00,88.0,77.0,29.99,SW,225,5.0,12.0,70,0.00,,,-99.99,WeatherLink 5.6,2013-07-10 17:00:00,
2013-07-10 12:30:00,89.0,77.5,29.98,SSW,202,4.0,11.0,69,0.00,,,-99.99,WeatherLink 5.6,2013-07-10 17:30:00,
2013-07-10 13:00:00,89.0,77.1,29.96,SW,225,4.0,12.0,68,0.00,,,-99.99,WeatherLink 5.6,2013-07-10 18:00:00,
2013-07-10 13:30:00,87.8,75.0,29.95,SSW,202,7.0,15.0,66,0.00,,,-99.99,WeatherLink 5.6,2013-07-10 18:30:00,
2013-07-10 14:00:00,85.9,76.6,29.93,SW,225,5.0,13.0,74,0.00,,,-99.99,WeatherLink 5.6,2013-07-10 19:00:00,
2013-07-10 14:30:00,86.1,77.2,29.93,SSW,202,5.0,13.0,75,0.00,,,-99.99,WeatherLink 5.6,2013-07-10 19:30:00,
2013-07-10 15:00:00,84.5,76.9,29.93,SW,225,4.0,13.0,78,0.00,,,-99.99,WeatherLink 5.6,2013-07-10 20:00:00,
2013-07-10 15:30:00,84.5,75.3,29.92,SW,225,3.0,10.0,74,0.00,,,-99.99,WeatherLink 5.6,2013-07-10 20:30:00,
2013-07-10 16:00:00,84.7,74.3,29.93,SSW,202,2.0,10.0,71,0.00,,,-99.99,WeatherLink 5.6,2013-07-10 21:00:00,
2013-07-10 16:30:00,84.1,76.1,29.93,SW,225,1.0,7.0,77,0.00,,,-99.99,WeatherLink 5.6,2013-07-10 21:30:00,
2013-07-10 17:00:00,79.9,74.6,29.93,NNE,22,1.0,10.0,84,0.00,,,-99.99,WeatherLink 5.6,2013-07-10 22:00:00,
2013-07-10 17:30:00,78.3,74.8,29.92,WNW,292,1.0,7.0,89,0.02,,,-99.99,WeatherLink 5.6,2013-07-10 22:30:00,
2013-07-10 18:00:00,76.8,73.6,29.92,WNW,292,1.0,7.0,90,0.03,,,-99.99,WeatherLink 5.6,2013-07-10 23:00:00,
2013-07-10 18:30:00,75.8,72.7,29.92,WNW,292,0.0,2.0,90,0.01,,,-99.99,WeatherLink 5.6,2013-07-10 23:30:00,
2013-07-10 19:00:00,76.1,73.3,29.90,North,-999,0.0,0.0,91,0.00,,,-99.99,WeatherLink 5.6,2013-07-11 00:00:00,
2013-07-10 19:30:00,76.1,73.6,29.90,North,-999,0.0,0.0,92,0.00,,,-99.99,WeatherLink 5.6,2013-07-11 00:30:00,
2013-07-10 20:00:00,76.1,73.6,29.90,North,-999,0.0,0.0,92,0.00,,,-99.99,WeatherLink 5.6,2013-07-11 01:00:00,
2013-07-10 20:30:00,76.0,73.8,29.89,North,-999,0.0,0.0,93,0.00,,,-99.99,WeatherLink 5.6,2013-07-11 01:30:00,
2013-07-10 21:00:00,76.0,73.8,29.90,North,-999,0.0,0.0,93,0.00,,,-99.99,WeatherLink 5.6,2013-07-11 02:00:00,
2013-07-10 21:30:00,75.4,73.2,29.91,NE,45,1.0,5.0,93,0.00,,,-99.99,WeatherLink 5.6,2013-07-11 02:30:00,
2013-07-10 22:00:00,75.4,73.6,29.90,North,-999,0.0,0.0,94,0.00,,,-99.99,WeatherLink 5.6,2013-07-11 03:00:00,
2013-07-10 22:30:00,75.6,74.1,29.89,North,-999,0.0,0.0,95,0.00,,,-99.99,WeatherLink 5.6,2013-07-11 03:30:00,
2013-07-10 23:00:00,75.4,73.9,29.89,North,-999,0.0,0.0,95,0.00,,,-99.99,WeatherLink 5.6,2013-07-11 04:00:00,
2013-07-10 23:30:00,75.3,73.8,29.89,SSE,157,0.0,3.0,95,0.00,,,-99.99,WeatherLink 5.6,2013-07-11 04:30:00,